Location: Banksville Park
(38.5557°N, 75.1182°W)
Time: 13:20:32
(UTC+00:00)

Meteor 1-4 Rocket - Pass Details

Date: 19 September 2020
Orbit: 450 x 501 km, 81.2° (Epoch: 22 October)

Event Time Altitude Azimuth Distance (km) Brightness Sun altitude
Exits shadow 10:09:16 10° 254° (WSW) 1,566 4.5 -8.0°
Maximum altitude 10:11:11 15° 288° (WNW) 1,336 4.2 -7.6°
Drops below altitude 10° 10:13:11 10° 324° (NW) 1,598 4.9 -7.2°
Sets 10:16:02 0° 349° (N) 2,487 6.1 -6.7°
